| time (UTC) | temp F | wind direction | speed knots | gust knots | rain 1hr in | rain 24hr in | rain mn in | humidity % | barometer mb |
| 20260509134554 | 71 | 0 | 0.0 | 0.0 | 0.00 | 0.00 | 0.00 | 99 | 1012.4 |
| 20260509133059 | 70 | 0 | 0.0 | 0.0 | 0.00 | 0.00 | 0.00 | 98 | 1012.5 |
| 20260509131547 | 70 | 0 | 0.0 | 0.0 | 0.00 | 0.00 | 0.00 | 98 | 1012.2 |
| 20260509130046 | 70 | 0 | 0.0 | 3.5 | 0.00 | 0.00 | 0.00 | 98 | 1011.9 |
| 20260509124555 | 70 | 0 | 0.0 | 2.6 | 0.00 | 0.00 | 0.00 | 98 | 1011.6 |
| 20260509123051 | 70 | 0 | 1.7 | 6.1 | 0.00 | 0.00 | 0.00 | 98 | 1011.4 |
| 20260509121548 | 70 | 211 | 2.6 | 7.8 | 0.00 | 0.00 | 0.00 | 98 | 1011.3 |
| 20260509120044 | 69 | 178 | 5.2 | 13.9 | 0.00 | 0.00 | 0.00 | 98 | 1010.9 |
| 20260509114558 | 69 | 204 | 6.1 | 10.4 | 0.00 | 0.00 | 0.00 | 98 | 1010.9 |
| 20260509113051 | 69 | 194 | 5.2 | 11.3 | 0.00 | 0.00 | 0.00 | 98 | 1010.8 |
| 20260509111551 | 69 | 177 | 3.5 | 13.0 | 0.00 | 0.00 | 0.00 | 97 | 1010.8 |
| 20260509110053 | 69 | 186 | 7.0 | 13.0 | 0.00 | 0.00 | 0.00 | 98 | 1010.7 |
| 20260509104549 | 69 | 181 | 6.1 | 10.4 | 0.00 | 0.00 | 0.00 | 97 | 1011.0 |
| 20260509103054 | 69 | 184 | 4.3 | 9.6 | 0.00 | 0.00 | 0.00 | 97 | 1011.2 |
| 20260509101550 | 69 | 0 | 0.9 | 3.5 | 0.00 | 0.00 | 0.00 | 97 | 1011.6 |
| 20260509094548 | 70 | 0 | 0.0 | 0.0 | 0.00 | 0.00 | 0.00 | 96 | 1011.8 |
| 20260509093048 | 70 | 0 | 0.0 | 0.0 | 0.00 | 0.00 | 0.00 | 96 | 1011.9 |
| 20260509091552 | 70 | 0 | 0.0 | 3.5 | 0.00 | 0.00 | 0.00 | 96 | 1012.0 |
| 20260509090051 | 70 | 220 | 0.0 | 4.3 | 0.00 | 0.00 | 0.00 | 95 | 1012.1 |
| 20260509084551 | 70 | 209 | 0.0 | 2.6 | 0.00 | 0.00 | 0.00 | 95 | 1012.5 |
| 20260509083051 | 70 | 0 | 0.9 | 3.5 | 0.00 | 0.00 | 0.00 | 95 | 1012.9 |
| 20260509081547 | 70 | 0 | 0.9 | 2.6 | 0.00 | 0.00 | 0.00 | 95 | 1012.7 |
| 20260509080108 | 70 | 175 | 0.9 | 5.2 | 0.00 | 0.00 | 0.00 | 94 | 1012.6 |
| 20260509074547 | 70 | 0 | 0.9 | 4.3 | 0.00 | 0.00 | 0.00 | 94 | 1012.9 |
| 20260509073144 | 70 | 155 | 0.0 | 4.3 | 0.00 | 0.00 | 0.00 | 94 | 1013.1 |
| 20260509071549 | 70 | 169 | 1.7 | 6.1 | 0.00 | 0.00 | 0.00 | 94 | 1012.7 |
| 20260509070050 | 70 | 153 | 3.5 | 7.8 | 0.00 | 0.00 | 0.00 | 94 | 1012.3 |
| 20260509064549 | 71 | 105 | 1.7 | 3.5 | 0.00 | 0.00 | 0.00 | 93 | 1012.4 |
| 20260509063048 | 71 | 86 | 0.9 | 3.5 | 0.00 | 0.00 | 0.00 | 93 | 1012.6 |
| 20260509061555 | 71 | 38 | 0.9 | 2.6 | 0.00 | 0.00 | 0.00 | 93 | 1012.8 |
| 20260509060050 | 71 | 0 | 0.0 | 1.7 | 0.00 | 0.00 | 0.00 | 93 | 1012.5 |
| 20260509054554 | 71 | 0 | 0.0 | 0.9 | 0.00 | 0.00 | 0.00 | 93 | 1012.7 |
| 20260509053053 | 71 | 161 | 0.0 | 2.6 | 0.00 | 0.00 | 0.00 | 92 | 1012.3 |
| 20260509051558 | 71 | 0 | 0.0 | 1.7 | 0.00 | 0.00 | 0.00 | 92 | 1012.4 |
| 20260509050050 | 71 | 177 | 3.5 | 7.0 | 0.00 | 0.00 | 0.00 | 92 | 1012.2 |
| 20260509044544 | 71 | 0 | 0.0 | 0.0 | 0.00 | 0.00 | 0.00 | 92 | 1012.2 |
| 20260509043055 | 71 | 0 | 0.0 | 3.5 | 0.00 | 0.00 | 0.00 | 92 | 1012.4 |
| 20260509041551 | 71 | 19 | 0.9 | 3.5 | 0.00 | 0.00 | 0.00 | 92 | 1012.4 |
| 20260509034548 | 71 | 130 | 0.0 | 2.6 | 0.00 | 0.00 | 0.00 | 92 | 1011.8 |
| 20260509033044 | 71 | 0 | 0.9 | 4.3 | 0.00 | 0.00 | 0.00 | 91 | 1011.5 |
| 20260509031544 | 71 | 170 | 1.7 | 7.0 | 0.00 | 0.00 | 0.00 | 91 | 1011.3 |
| 20260509030049 | 71 | 178 | 4.3 | 8.7 | 0.00 | 0.00 | 0.00 | 91 | 1011.2 |
| 20260509024549 | 72 | 166 | 5.2 | 8.7 | 0.00 | 0.00 | 0.00 | 90 | 1010.8 |
| 20260509023047 | 72 | 176 | 3.5 | 8.7 | 0.00 | 0.00 | 0.00 | 90 | 1010.7 |
| 20260509021544 | 72 | 152 | 4.3 | 9.6 | 0.00 | 0.00 | 0.00 | 90 | 1010.6 |
| 20260509020053 | 71 | 151 | 4.3 | 10.4 | 0.00 | 0.00 | 0.00 | 89 | 1010.4 |
| 20260509014550 | 72 | 171 | 5.2 | 9.6 | 0.00 | 0.00 | 0.00 | 89 | 1010.2 |
| 20260509013102 | 72 | 193 | 4.3 | 7.8 | 0.00 | 0.00 | 0.00 | 88 | 1010.4 |
| 20260509011551 | 72 | 161 | 5.2 | 7.8 | 0.00 | 0.00 | 0.00 | 88 | 1010.4 |
| 20260509010054 | 72 | 162 | 2.6 | 7.8 | 0.00 | 0.00 | 0.00 | 88 | 1010.4 |
| 20260509004611 | 73 | 163 | 3.5 | 6.1 | 0.00 | 0.00 | 0.00 | 86 | 1010.2 |
| 20260509003056 | 74 | 179 | 4.3 | 8.7 | 0.00 | 0.00 | 0.00 | 84 | 1010.2 |
| 20260509001551 | 74 | 167 | 2.6 | 8.7 | 0.00 | 0.00 | 0.00 | 83 | 1010.3 |
| 20260509000052 | 75 | 159 | 0.9 | 7.0 | 0.00 | 0.00 | 0.00 | 82 | 1010.6 |
| 20260508234557 | 75 | 148 | 1.7 | 7.8 | 0.00 | 0.00 | 0.00 | 82 | 1010.3 |
| 20260508233114 | 75 | 119 | 3.5 | 7.8 | 0.00 | 0.00 | 0.00 | 81 | 1010.4 |
| 20260508231556 | 76 | 169 | 4.3 | 8.7 | 0.00 | 0.00 | 0.00 | 80 | 1010.6 |
| 20260508230056 | 75 | 138 | 3.5 | 8.7 | 0.00 | 0.00 | 0.00 | 81 | 1010.5 |
| 20260508224548 | 75 | 0 | 0.9 | 6.1 | 0.00 | 0.00 | 0.00 | 80 | 1010.6 |
| 20260508223046 | 74 | 0 | 2.6 | 6.1 | 0.00 | 0.00 | 0.00 | 82 | 1011.0 |
| 20260508221548 | 74 | 110 | 3.5 | 7.8 | 0.00 | 0.00 | 0.00 | 80 | 1011.3 |
| 20260508220054 | 75 | 161 | 1.7 | 7.0 | 0.00 | 0.00 | 0.00 | 82 | 1011.6 |
| 20260508214550 | 75 | 0 | 0.9 | 5.2 | 0.00 | 0.00 | 0.00 | 81 | 1011.5 |
| 20260508213050 | 74 | 130 | 2.6 | 6.1 | 0.00 | 0.00 | 0.00 | 82 | 1011.8 |
| 20260508211545 | 74 | 0 | 0.9 | 5.2 | 0.00 | 0.00 | 0.00 | 82 | 1012.0 |
| 20260508210106 | 74 | 165 | 0.0 | 5.2 | 0.00 | 0.00 | 0.00 | 82 | 1012.2 |
| 20260508204547 | 74 | 178 | 3.5 | 7.8 | 0.00 | 0.00 | 0.00 | 80 | 1012.3 |
| 20260508203049 | 74 | 176 | 0.9 | 7.0 | 0.00 | 0.00 | 0.00 | 81 | 1012.3 |
| 20260508201548 | 76 | 153 | 0.9 | 6.1 | 0.00 | 0.00 | 0.00 | 77 | 1012.3 |
| 20260508200049 | 75 | 155 | 0.0 | 7.0 | 0.00 | 0.00 | 0.00 | 79 | 1012.4 |
| 20260508194550 | 74 | 121 | 2.6 | 7.8 | 0.00 | 0.00 | 0.00 | 78 | 1012.5 |
| 20260508193053 | 75 | 130 | 0.9 | 6.1 | 0.00 | 0.00 | 0.00 | 79 | 1012.8 |
| 20260508191548 | 72 | 105 | 3.5 | 8.7 | 0.00 | 0.00 | 0.00 | 79 | 1013.2 |
| 20260508190053 | 73 | 131 | 2.6 | 6.1 | 0.00 | 0.00 | 0.00 | 81 | 1013.2 |
| 20260508184606 | 70 | 109 | 0.0 | 1.7 | 0.00 | 0.00 | 0.00 | 81 | 1013.4 |
| 20260508183048 | 68 | 0 | 0.0 | 1.7 | 0.00 | 0.00 | 0.00 | 83 | 1013.7 |
| 20260508181601 | 67 | 0 | 0.0 | 1.7 | 0.00 | 0.00 | 0.00 | 85 | 1014.1 |
| 20260508180049 | 67 | 0 | 0.0 | 2.6 | 0.00 | 0.00 | 0.00 | 84 | 1014.4 |
| 20260508174545 | 67 | 0 | 0.9 | 7.0 | 0.00 | 0.00 | 0.00 | 86 | 1014.5 |
| 20260508173049 | 66 | 98 | 1.7 | 6.1 | 0.00 | 0.00 | 0.00 | 86 | 1014.7 |
| 20260508171550 | 66 | 103 | 1.7 | 5.2 | 0.00 | 0.00 | 0.00 | 85 | 1015.0 |
| 20260508170051 | 65 | 83 | 2.6 | 7.0 | 0.00 | 0.00 | 0.00 | 84 | 1015.1 |
| 20260508164600 | 66 | 69 | 2.6 | 7.8 | 0.00 | 0.00 | 0.00 | 84 | 1015.3 |
| 20260508163050 | 65 | 107 | 0.9 | 6.1 | 0.00 | 0.00 | 0.00 | 87 | 1015.4 |
| 20260508161550 | 64 | 0 | 0.9 | 3.5 | 0.00 | 0.00 | 0.00 | 87 | 1015.6 |
| 20260508160048 | 64 | 0 | 1.7 | 5.2 | 0.00 | 0.00 | 0.00 | 88 | 1015.9 |
| 20260508154552 | 63 | 102 | 0.0 | 5.2 | 0.00 | 0.00 | 0.00 | 88 | 1015.9 |
| 20260508153047 | 63 | 0 | 0.0 | 3.5 | 0.00 | 0.00 | 0.00 | 89 | 1015.7 |
| 20260508151559 | 62 | 53 | 0.9 | 2.6 | 0.00 | 0.00 | 0.00 | 89 | 1015.7 |
| 20260508150100 | 62 | 53 | 0.0 | 3.5 | 0.00 | 0.00 | 0.00 | 90 | 1015.9 |
| 20260508144609 | 61 | 0 | 0.0 | 0.0 | 0.00 | 0.00 | 0.00 | 89 | 1016.0 |
| 20260508143108 | 61 | 0 | 0.0 | 1.7 | 0.00 | 0.00 | 0.00 | 88 | 1016.2 |
| 20260508141602 | 61 | 53 | 0.0 | 2.6 | 0.00 | 0.00 | 0.00 | 88 | 1016.2 |
| 20260508140051 | 61 | 22 | 0.0 | 8.7 | 0.00 | 0.00 | 0.00 | 88 | 1015.9 |